Abilene Dyess, TX

9:44 PM CDT on August 16, 2017 (GMT -0500)
Dyess Air Force Base

Weather History for KDYS - May, 2013

Change the Weather History Date:

Wednesday, May 1, 2013

  Actual Average Record
Temperature  
Mean Temperature 73 °F -  
Max Temperature 90 °F 81 °F 102 °F (2002)
Min Temperature 56 °F 57 °F 38 °F (2014)
Cooling Degree Days 8    
Growing Degree Days 23 (Base 50)    
Moisture  
Dew Point 59 °F    
Average Humidity 60    
Maximum Humidity 82    
Minimum Humidity 36    
Precipitation  
Precipitation 0.00 in - - ()
Sea Level Pressure  
Sea Level Pressure 29.78 in    
Wind  
Wind Speed 15 mph (ESE)    
Max Wind Speed 37 mph    
Max Gust Speed 44 mph    
Visibility 10 miles    
Events Rain , Thunderstorm    
Averages and records for this station are not official NWS values.
T = Trace of Precipitation, MM = Missing Value Source: NWS Daily Summary

Daily Weather History Graph

Daily Weather History Graph

Search for Another Location

Airport or City:

Trip Planner

Search our weather history database for the weather conditions in past years. The results will help you decide how hot, cold, wet, or windy it might be!

Date:

Astronomy

May. 01, 2013 Rise Set
Actual Time 6:52 AM CDT 8:20 PM CDT
Civil Twilight 6:26 AM CDT 8:47 PM CDT
Nautical Twilight 5:55 AM CDT 9:18 PM CDT
Astronomical Twilight 5:22 AM CDT 9:51 PM CDT
Moon 1:30 AM CDT (5/1) 12:32 PM CDT (5/1)
Length of Visible Light 14h 20m
Length of Day
13h 28m
Waning Gibbous, 59% of the Moon is Illuminated
May 1
Waning Gibbous
May 2
Last Quarter
May 9
New
May 17
First Quarter
May 24
Full

Hourly Weather History & Observations

Time (CDT) Temp. Heat Index Dew Point Humidity Pressure Visibility Wind Dir Wind Speed Gust Speed Precip Events Conditions
12:58 AM 69.3 °F - 57.0 °F 65% 29.77 in 10.0 mi Variable 4.6 mph - N/A   Clear
1:58 AM 69.1 °F - 59.0 °F 70% 29.72 in 10.0 mi SE 19.6 mph - N/A   Clear
2:58 AM 69.1 °F - 60.8 °F 75% 29.71 in 10.0 mi SSE 23.0 mph 27.6 mph N/A   Clear
3:58 AM 68.5 °F - 61.2 °F 77% 29.69 in 10.0 mi SSE 23.0 mph 27.6 mph N/A   Clear
4:58 AM 68.2 °F - 61.3 °F 79% 29.70 in 10.0 mi SSE 21.9 mph - N/A   Clear
5:58 AM 67.8 °F - 61.2 °F 79% 29.71 in 10.0 mi South 20.7 mph 28.8 mph N/A   Mostly Cloudy
6:58 AM 66.9 °F - 61.3 °F 82% 29.60 in 10.0 mi SSE 18.4 mph - N/A   Clear
7:58 AM 67.8 °F - 61.7 °F 81% 29.65 in 10.0 mi South 12.7 mph - N/A   Clear
8:38 AM 71.6 °F - 62.6 °F 73% 29.78 in 10.0 mi South 13.8 mph - N/A   Mostly Cloudy
8:43 AM 71.6 °F - 62.6 °F 73% 29.77 in 10.0 mi South 16.1 mph - N/A   Scattered Clouds
8:58 AM 71.8 °F - 63.3 °F 75% 29.67 in 10.0 mi South 16.1 mph - N/A   Partly Cloudy
9:58 AM 73.6 °F - 63.7 °F 71% 29.69 in 10.0 mi South 18.4 mph 24.2 mph N/A   Overcast
10:33 AM 75.2 °F - 64.4 °F 69% 29.82 in 10.0 mi South 13.8 mph - N/A   Overcast
10:43 AM 77.0 °F - 64.4 °F 65% 29.83 in 10.0 mi South 16.1 mph - N/A   Overcast
10:48 AM 75.2 °F - 64.4 °F 69% 29.83 in 10.0 mi South 15.0 mph - N/A   Overcast
10:58 AM 75.6 °F - 63.5 °F 66% 29.74 in 10.0 mi SSW 12.7 mph - N/A   Mostly Cloudy
11:58 AM 77.2 °F - 63.7 °F 63% 29.75 in 10.0 mi South 10.4 mph - N/A   Scattered Clouds
12:58 PM 82.4 °F 83.9 °F 64.4 °F 54% 29.72 in 10.0 mi SE 10.4 mph - N/A   Mostly Cloudy
1:58 PM 84.7 °F 86.1 °F 64.0 °F 50% 29.71 in 10.0 mi ESE 11.5 mph - N/A   Scattered Clouds
2:58 PM 87.6 °F 88.2 °F 62.4 °F 43% 29.70 in 10.0 mi East 8.1 mph - N/A   Partly Cloudy
3:58 PM 89.2 °F 89.3 °F 61.2 °F 39% 29.69 in 10.0 mi NE 6.9 mph - N/A   Partly Cloudy
4:58 PM 88.0 °F 87.4 °F 59.2 °F 38% 29.68 in 10.0 mi Variable 2.3 mph - N/A   Partly Cloudy
5:58 PM 89.6 °F 89.2 °F 59.9 °F 37% 29.69 in 10.0 mi ENE 10.4 mph - N/A   Clear
6:58 PM 87.4 °F 87.4 °F 61.0 °F 41% 29.70 in 10.0 mi ENE 10.4 mph - N/A   Clear
7:58 PM 83.5 °F 83.7 °F 61.0 °F 46% 29.74 in 10.0 mi ENE 10.4 mph 23.0 mph N/A   Mostly Cloudy
8:05 PM 82.4 °F 82.9 °F 60.8 °F 48% 29.86 in 10.0 mi ENE 10.4 mph - N/A Thunderstorm Mostly Cloudy
8:23 PM 78.8 °F - 50.0 °F 36% 29.88 in 6.0 mi North 36.8 mph 43.7 mph N/A Rain , Thunderstorm Light Thunderstorms and Rain
8:36 PM 75.2 °F - 50.0 °F 41% 29.90 in 10.0 mi North 33.4 mph 43.7 mph N/A Thunderstorm Thunderstorm
8:58 PM 73.0 °F - 51.4 °F 47% 29.83 in 10.0 mi NNE 20.7 mph 34.5 mph N/A Thunderstorm Thunderstorm
8:59 PM 73.4 °F - 51.8 °F 47% 29.94 in 10.0 mi NE 18.4 mph 31.1 mph N/A Thunderstorm Thunderstorm
9:42 PM 69.8 °F - 53.6 °F 56% 29.99 in 10.0 mi NE 11.5 mph - N/A Thunderstorm Scattered Clouds
9:58 PM 69.8 °F - 52.3 °F 54% 29.90 in 10.0 mi NE 16.1 mph 24.2 mph N/A   Mostly Cloudy
10:58 PM 60.4 °F - 46.4 °F 60% 29.95 in 10.0 mi NNE 21.9 mph 28.8 mph N/A   Clear
11:28 PM 57.2 °F - 44.6 °F 63% 30.07 in 10.0 mi North 16.1 mph 25.3 mph N/A   Mostly Cloudy
11:58 PM 56.1 °F - 43.3 °F 62% 30.01 in 10.0 mi North 21.9 mph 26.5 mph N/A   Overcast